Valdosta Regional, GA

1:42 AM EST on November 23, 2017 (GMT -0500)
Valdosta Regional

Weather History for KVLD - January, 2012

Change the Weather History Date:

Tuesday, January 17, 2012

  Actual Average Record
Temperature  
Mean Temperature 60 °F 50 °F  
Max Temperature 75 °F 62 °F 79 °F (2017)
Min Temperature 44 °F 38 °F 32 °F (2015)
Degree Days  
Heating Degree Days 6 15  
Month to date heating degree days 255  
Since 1 July heating degree days 868  
Growing Degree Days 10 (Base 50)    
Moisture  
Dew Point 49 °F    
Average Humidity 70    
Maximum Humidity 90    
Minimum Humidity 46    
Precipitation  
Precipitation 0.00 in 0.10 in 1.13 in (2016)
Month to date precipitation 2.74  
Year to date precipitation 2.74  
Sea Level Pressure  
Sea Level Pressure 30.26 in    
Wind  
Wind Speed 3 mph (SSW)    
Max Wind Speed 9 mph    
Max Gust Speed 18 mph    
Visibility 9 miles    
Events      
T = Trace of Precipitation, MM = Missing Value Source: NWS Daily Summary

Daily Weather History Graph

Daily Weather History Graph

Search for Another Location

Airport or City:

Trip Planner

Search our weather history database for the weather conditions in past years. The results will help you decide how hot, cold, wet, or windy it might be!

Date:

Astronomy

Jan. 17, 2012 Rise Set
Actual Time 7:31 AM EST 5:55 PM EST
Civil Twilight 7:05 AM EST 6:21 PM EST
Nautical Twilight 6:35 AM EST 6:50 PM EST
Astronomical Twilight 6:06 AM EST 7:19 PM EST
Moon 1:52 AM EST (1/17) 12:46 PM EST (1/17)
Length of Visible Light 11h 16m
Length of Day
10h 24m
Waning Crescent, 35% of the Moon is Illuminated
Jan 17
Waning Crescent
Jan 23
New
Jan 30
First Quarter
Feb 7
Full
Feb 14
Last Quarter

Hourly Weather History & Observations

Time (EST) Temp. Windchill Dew Point Humidity Pressure Visibility Wind Dir Wind Speed Gust Speed Precip Events Conditions
12:53 AM 44.6 °F - 41.0 °F 87% 30.34 in 8.0 mi Calm Calm - N/A   Clear
1:53 AM 44.6 °F - 39.2 °F 81% 30.33 in 7.0 mi Calm Calm - N/A   Clear
2:53 AM 44.1 °F - 39.9 °F 85% 30.34 in 7.0 mi Calm Calm - N/A   Clear
3:53 AM 46.0 °F 44.8 °F 42.1 °F 86% 30.33 in 8.0 mi South 3.5 mph - N/A   Clear
4:53 AM 44.1 °F - 41.0 °F 89% 30.32 in 6.0 mi Calm Calm - N/A   Clear
5:53 AM 46.9 °F - 44.1 °F 90% 30.32 in 9.0 mi South 3.5 mph - N/A   Clear
6:53 AM 45.0 °F - 42.1 °F 90% 30.32 in 8.0 mi Calm Calm - N/A   Clear
7:53 AM 45.0 °F - 41.0 °F 86% 30.34 in 8.0 mi Calm Calm - N/A   Scattered Clouds
8:53 AM 52.0 °F - 48.9 °F 89% 30.34 in 10.0 mi Calm Calm - N/A   Mostly Cloudy
9:53 AM 61.0 °F - 51.1 °F 70% 30.36 in 10.0 mi South 4.6 mph - N/A   Mostly Cloudy
10:53 AM 66.0 °F - 51.1 °F 59% 30.35 in 10.0 mi South 9.2 mph 17.3 mph N/A   Scattered Clouds
11:53 AM 71.1 °F - 53.1 °F 53% 30.30 in 10.0 mi South 9.2 mph - N/A   Scattered Clouds
12:53 PM 73.9 °F - 53.1 °F 48% 30.25 in 10.0 mi Variable 6.9 mph 18.4 mph N/A   Mostly Cloudy
1:53 PM 73.0 °F - 53.1 °F 49% 30.22 in 10.0 mi SSW 8.1 mph 16.1 mph N/A   Scattered Clouds
2:53 PM 75.0 °F - 53.1 °F 46% 30.20 in 10.0 mi Variable 5.8 mph - N/A   Mostly Cloudy
3:53 PM 73.9 °F - 53.1 °F 48% 30.19 in 10.0 mi SSW 6.9 mph - N/A   Scattered Clouds
4:53 PM 73.0 °F - 53.1 °F 49% 30.18 in 10.0 mi SW 5.8 mph - N/A   Clear
5:53 PM 69.1 °F - 53.1 °F 57% 30.17 in 10.0 mi SSW 5.8 mph - N/A   Clear
6:53 PM 64.9 °F - 53.1 °F 65% 30.19 in 10.0 mi Variable 3.5 mph - N/A   Clear
7:53 PM 64.9 °F - 53.1 °F 65% 30.20 in 10.0 mi SSW 4.6 mph - N/A   Clear
8:53 PM 63.0 °F - 53.1 °F 70% 30.20 in 10.0 mi Variable 3.5 mph - N/A   Clear
9:53 PM 64.9 °F - 53.1 °F 65% 30.18 in 10.0 mi SSW 4.6 mph - N/A   Clear
10:53 PM 61.0 °F - 53.1 °F 75% 30.14 in 10.0 mi South 8.1 mph - N/A   Partly Cloudy
11:53 PM 61.0 °F - 54.0 °F 78% 30.13 in 10.0 mi SW 3.5 mph - N/A   Partly Cloudy